Content
SEND FEEDBACK

United States of America Flag

EARTH CITY, MISSOURI


Home > North America > United States > Missouri
Elevation: 476 feet     Latitude: 38 46N     Longitude: 090 30W

WEATHER
 
SELECT A DAY
Number of Records: 221,284;   Date Range: 1/1/95 - 3/22/16
 
SHARE

PRINT THIS DATA

[ ← Previous Day ]
WEATHER ALMANAC - JUNE 13, 2013
[ Next Day → ]
[ °C ]   °F
Weather ElementAverageHighLow
Temperature75.8 °F84 °F (5:51 pm)69.8 °F (9:18 am)
Dewpoint61.4 °F70 °F (1:51 am)55 °F (6:51 pm)
Humidity62.3 %88 % (9:47 am)39 % (6:51 pm)
Barometer29.91 in29.99 in (12:17 pm)29.74 in (1:51 am)
Wind Speed9 mph18.4 mph (4:51 am)
Wind Gust32.2 mph (4:51 am)
Weather ElementAverage
Visibility9.7 mi
Wind DirectionWSW (244.1 °)

Weather ElementTotal
Precipitation---
Cooling Degree Days11.9 (Base 65)
Growing Degree Days26.9 (Base 50)
Averaged from 27 records on June 13, 2013
WEATHER CONDITIONS BREAKOUT
WIND DIRECTION BREAKOUT
WEATHER BY HOUR - JUNE 13, 2013
[ °C ]   °F
Local TimeTemperatureDewpointHumidityBarometerVisibilityWind DirectionWind SpeedGust SpeedPrecipitationEventsConditions
1:51 AM82.9 °F70.0 °F65 %29.74 in10.0 miWNW (290°)15.0 mph21.9 mphScattered Clouds
2:51 AM79.0 °F62.1 °F56 %29.75 in10.0 miWest (280°)16.1 mph19.6 mphPartly Cloudy
3:51 AM75.9 °F62.1 °F62 %29.77 in10.0 miWNW (290°)9.2 mphClear
4:51 AM73.0 °F59.0 °F61 %29.79 in10.0 miWNW (300°)18.4 mph32.2 mphPartly Cloudy
5:33 AM71.6 °F60.8 °F69 %29.85 in10.0 miWNW (290°)17.3 mph26.5 mphMostly Cloudy
5:51 AM72.0 °F60.1 °F66 %29.82 in10.0 miWNW (300°)17.3 mph27.6 mphMostly Cloudy
6:51 AM70.0 °F61.0 °F73 %29.85 in10.0 miWNW (290°)12.7 mph20.7 mphOvercast
7:51 AM70.0 °F62.1 °F76 %29.88 in10.0 miWNW (300°)9.2 mphOvercast
8:51 AM71.1 °F63.0 °F75 %29.91 in10.0 miWNW (300°)10.4 mphOvercast
9:18 AM69.8 °F64.4 °F83 %29.95 in5.0 miNW (320°)9.2 mph17.3 mph0.00 inRainLight Rain
9:47 AM69.8 °F66.2 °F88 %29.96 in9.0 miNW (320°)8.1 mph0.00 inOvercast
9:51 AM71.1 °F66.0 °F84 %29.93 in9.0 miNNW (330°)8.1 mph0.00 inOvercast
10:51 AM73.0 °F64.9 °F76 %29.94 in10.0 miNNW (330°)6.9 mphOvercast
11:51 AM73.0 °F64.9 °F76 %29.96 in10.0 miNNW (330°)12.7 mphMostly Cloudy
12:17 PM75.2 °F64.4 °F69 %29.99 in10.0 miNW (320°)11.5 mphMostly Cloudy
12:51 PM79.0 °F66.0 °F64 %29.96 in10.0 miNNW (340°)9.2 mphMostly Cloudy
1:51 PM82.0 °F64.0 °F54 %29.96 in10.0 miNW (310°)6.9 mphScattered Clouds
2:51 PM81.0 °F64.0 °F56 %29.96 in10.0 miNNW (330°)8.1 mphScattered Clouds
3:51 PM82.9 °F61.0 °F47 %29.95 in10.0 miCalmPartly Cloudy
4:51 PM82.9 °F57.9 °F42 %29.95 in10.0 miNNE (30°)6.9 mphScattered Clouds
5:51 PM84.0 °F57.0 °F40 %29.95 in10.0 miNNE (20°)6.9 mphScattered Clouds
6:51 PM82.0 °F55.0 °F39 %29.96 in10.0 miNW (320°)9.2 mphMostly Cloudy
7:51 PM79.0 °F57.0 °F47 %29.98 in10.0 miNW (320°)9.2 mphMostly Cloudy
8:51 PM75.9 °F55.9 °F50 %29.98 in10.0 miNNW (330°)4.6 mphMostly Cloudy
9:51 PM73.9 °F57.0 °F55 %29.97 in10.0 miCalmMostly Cloudy
10:51 PM73.9 °F57.0 °F55 %29.95 in10.0 miCalmScattered Clouds
11:51 PM73.9 °F55.9 °F53 %29.94 in10.0 miCalmClear
Hourly data recorded from KSTL, located miles away from Earth City, Missouri




STORIES FROM OUR PARTNERS